EW5171 Grenaa DK current weather conditions

sailwx.info

Wind from 223 at 2 knots gusting 7

Air temperature 10.0° C
Dewpoint 8.4° C

Last reported at 2020-Jul-12 00:00 UTC.
Time now 2020-Jul-12 00:21 UTC

Location: N 56°24' E 010°55'.
View on Google Maps.

See reports from other nearby stations

  
Tides and Currents Weather Stations Pressure Air Temp Water Temp Dewpoint Dewpoint Depression Visibility Wind Speed Wind Dir Waves Ship Positions
date/time (UTC)wind fromknots sea level pressurealtimeterstation pressurevisibilityair tempwater tempwave heightnotes
2020-Jul-12 00:00 223 2 gusting 7 10.0
2020-Jul-11 23:45 205 0 gusting 6 10.0
2020-Jul-11 23:15 308 10.0
2020-Jul-11 23:00 150 10.0
2020-Jul-11 22:45 177 0 gusting 8 10.0
2020-Jul-11 22:30 244 10.0
2020-Jul-11 22:15 298 10.0
2020-Jul-11 21:45 266 0 gusting 4 10.0
2020-Jul-11 21:30 190 10.6
2020-Jul-11 21:16 257 10.6
2020-Jul-11 21:01 235 11.1
2020-Jul-11 20:47 232 11.1
2020-Jul-11 20:31 292 11.7
2020-Jul-11 20:16 209 12.2
2020-Jul-11 20:01 274 12.8
2020-Jul-11 19:46 259 1 gusting 6 12.8
2020-Jul-11 19:32 192 2 gusting 6 13.3
2020-Jul-11 19:16 275 1 gusting 8 13.3
2020-Jul-11 19:00 214 2 gusting 12 13.9
2020-Jul-11 18:46 243 1 gusting 13 13.9
2020-Jul-11 18:31 269 0 gusting 11 14.4
2020-Jul-11 18:17 253 15.0
2020-Jul-11 18:01 229 2 gusting 12 15.0
2020-Jul-11 17:49 236 2 gusting 15 15.6
2020-Jul-11 17:31 198 2 gusting 13 16.1
2020-Jul-11 17:16 290 5 gusting 10 16.7
2020-Jul-11 17:00 261 2 gusting 14 16.7
2020-Jul-11 16:46 165 3 gusting 11 16.7
2020-Jul-11 16:30 281 4 gusting 15 16.7
2020-Jul-11 16:16 347 6 gusting 14 17.2
2020-Jul-11 16:01 266 1 gusting 11 17.2
2020-Jul-11 15:45 274 1 gusting 11 17.2
2020-Jul-11 15:31 261 1 gusting 11 16.7
2020-Jul-11 15:15 211 2 gusting 13 17.2
2020-Jul-11 14:46 206 3 gusting 13 16.7
2020-Jul-11 14:30 278 6 gusting 13 16.7
2020-Jul-11 14:15 173 17.8
2020-Jul-11 14:00 298 2 gusting 10 18.3
2020-Jul-11 13:45 291 2 gusting 9 17.8
2020-Jul-11 13:31 240 4 gusting 17 17.2
2020-Jul-11 13:16 157 1 gusting 13 17.2
2020-Jul-11 13:00 273 3 gusting 15 18.9
2020-Jul-11 12:45 246 2 gusting 12 18.3
2020-Jul-11 12:31 242 2 gusting 13 17.8
2020-Jul-11 12:16 259 16.7
2020-Jul-11 12:01 306 1 gusting 7 16.1
2020-Jul-11 11:45 281 5 gusting 10 17.2
2020-Jul-11 11:30 251 3 gusting 9 16.7
2020-Jul-11 11:15 304 0 gusting 9 17.2
2020-Jul-11 11:00 189 0 gusting 11 17.2
2020-Jul-11 10:46 300 1 gusting 6 16.7
2020-Jul-11 10:32 216 2 gusting 11 17.2
2020-Jul-11 10:17 164 0 gusting 11 16.7
2020-Jul-11 10:01 178 1 gusting 9 17.2
2020-Jul-11 09:46 296 4 gusting 10 16.1
2020-Jul-11 09:31 180 3 gusting 13 15.6
2020-Jul-11 09:17 194 2 gusting 14 16.1
2020-Jul-11 09:01 272 2 gusting 12 16.1
2020-Jul-11 08:46 067 15.6
2020-Jul-11 08:33 180 2 gusting 9 15.0
2020-Jul-11 08:16 281 0 gusting 9 15.6
2020-Jul-11 08:00 132 4 gusting 19 15.0
2020-Jul-11 07:45 251 1 gusting 14 15.0
2020-Jul-11 07:30 086 1 gusting 9 14.4
2020-Jul-11 07:15 322 14.4
2020-Jul-11 07:00 044 13.9
2020-Jul-11 06:45 282 4 gusting 14 13.9
2020-Jul-11 06:31 194 3 gusting 11 13.3
2020-Jul-11 06:17 009 3 gusting 11 12.8
2020-Jul-11 06:01 300 2 gusting 12 12.2
2020-Jul-11 05:47 279 3 gusting 12 12.2
2020-Jul-11 05:31 079 0 gusting 10 11.7
2020-Jul-11 04:45 242 2 gusting 7 10.6
2020-Jul-11 04:30 252 10.0
2020-Jul-11 04:15 273 10.0
2020-Jul-11 04:00 262 10.0
2020-Jul-11 03:45 248 0 gusting 8 10.0
2020-Jul-11 03:30 299 9.4
2020-Jul-11 03:17 267 9.4
2020-Jul-11 03:01 248 9.4
2020-Jul-11 02:46 288 9.4
2020-Jul-11 02:31 195 9.4
2020-Jul-11 02:16 291 9.4
2020-Jul-11 02:02 233 9.4
2020-Jul-11 01:45 132 1 gusting 7 10.0
2020-Jul-11 01:31 168 1 gusting 5 10.0
2020-Jul-11 01:15 269 10.0
2020-Jul-11 01:02 268 10.0
2020-Jul-11 00:45 252 10.0
2020-Jul-11 00:30 290 10.0
2020-Jul-11 00:16 248 10.0
2020-Jul-11 00:00 254 10.6
2020-Jul-10 23:45 287 0 gusting 6 10.6
2020-Jul-10 23:30 320 11.1
2020-Jul-10 23:15 242 11.7
2020-Jul-10 23:00 226 12.2
2020-Jul-10 22:45 265 12.2
2020-Jul-10 22:30 227 12.2
2020-Jul-10 22:15 313 2 gusting 12 11.7
2020-Jul-10 21:45 272 11.1
2020-Jul-10 21:30 236 11.7
2020-Jul-10 21:15 284 11.7
2020-Jul-10 21:00 155 12.2
2020-Jul-10 20:48 269 0 gusting 11 12.2
2020-Jul-10 20:31 185 1 gusting 7 12.8
2020-Jul-10 20:17 180 12.8
2020-Jul-10 20:01 258 12.8
2020-Jul-10 19:46 201 12.8
2020-Jul-10 19:32 198 13.3
2020-Jul-10 19:17 302 13.9
2020-Jul-10 19:02 275 13.9
2020-Jul-10 18:46 254 0 gusting 6 14.4
2020-Jul-10 18:31 198 14.4
2020-Jul-10 18:16 246 14.4
2020-Jul-10 18:01 180 1 gusting 6 15.0
2020-Jul-10 17:46 142 1 gusting 10 15.6
2020-Jul-10 17:31 304 16.1
2020-Jul-10 17:16 245 1 gusting 10 16.1
2020-Jul-10 17:01 213 2 gusting 6 16.7
2020-Jul-10 16:46 213 16.7
2020-Jul-10 16:31 268 1 gusting 10 16.7
2020-Jul-10 16:16 237 16.1
2020-Jul-10 16:01 360 16.7
2020-Jul-10 15:46 267 17.2
2020-Jul-10 15:31 281 2 gusting 9 17.8
2020-Jul-10 15:16 258 2 gusting 8 17.2
2020-Jul-10 15:00 202 17.2
2020-Jul-10 14:46 360 1 gusting 9 16.7
2020-Jul-10 14:31 169 16.7
2020-Jul-10 14:15 196 16.1
2020-Jul-10 14:00 205 15.6
2020-Jul-10 13:45 234 15.6
2020-Jul-10 13:30 232 15.6
2020-Jul-10 13:15 193 15.6
2020-Jul-10 13:00 294 15.6
2020-Jul-10 12:45 209 15.0
2020-Jul-10 12:30 225 15.0
2020-Jul-10 12:15 236 15.0
2020-Jul-10 12:00 268 15.6
2020-Jul-10 11:46 202 15.0
2020-Jul-10 11:32 289 15.0
2020-Jul-10 11:17 265 15.0
2020-Jul-10 11:01 265 15.0
2020-Jul-10 10:47 230 15.0
2020-Jul-10 10:32 219 15.0
2020-Jul-10 10:16 223 14.4
2020-Jul-10 10:02 286 15.0
2020-Jul-10 09:46 282 15.0
2020-Jul-10 09:32 199 15.0
2020-Jul-10 09:16 239 14.4
2020-Jul-10 09:01 200 14.4
2020-Jul-10 08:46 292 14.4
2020-Jul-10 08:31 330 14.4
2020-Jul-10 08:16 298 14.4
2020-Jul-10 08:01 201 14.4
2020-Jul-10 07:46 213 14.4
2020-Jul-10 07:30 132 13.9
2020-Jul-10 07:15 170 0 gusting 3 13.3
2020-Jul-10 07:00 248 12.8
2020-Jul-10 06:46 271 12.2
2020-Jul-10 06:31 240 12.2
2020-Jul-10 06:15 227 11.7
2020-Jul-10 06:00 282 10.6
2020-Jul-10 05:45 278 10.0
2020-Jul-10 05:30 299 9.4
2020-Jul-10 05:15 308 8.9
2020-Jul-10 05:00 251 8.3
2020-Jul-10 04:45 280 7.8
2020-Jul-10 04:30 279 7.2
2020-Jul-10 04:17 257 6.7
2020-Jul-10 04:02 257 6.1
2020-Jul-10 03:49 257 6.1
2020-Jul-10 03:31 257 5.6
2020-Jul-10 03:16 257 6.1
2020-Jul-10 03:01 257 6.7
2020-Jul-10 02:46 265 6.7
2020-Jul-10 02:31 265 6.7
2020-Jul-10 02:16 290 6.7
2020-Jul-10 02:01 290 7.2
2020-Jul-10 01:46 290 7.2
2020-Jul-10 01:31 290 7.2
2020-Jul-10 01:15 295 7.2
2020-Jul-10 01:01 300 7.2
2020-Jul-10 00:46 280 7.8
2020-Jul-10 00:30 267 7.8
2020-Jul-10 00:16 277 7.8
2020-Jul-10 00:01 271 7.8